Location: Hains Lake
(37.8540°N, 99.8578°W)
Time: 05:09:31
(UTC+00:00)

Tiros 1 despin weight - Pass Details

Date: 27 April 2021
Orbit: 593 x 642 km, 48.2° (Epoch: 07 May)

Event Time Altitude Azimuth Distance (km) Brightness Sun altitude
Rises 12:04:45 0° 296° (WNW) 2,918 ? 2.3°
Reaches altitude 10° 12:07:32 10° 312° (NW) 2,001 ? 2.9°
Maximum altitude 12:11:08 22° 3° (N) 1,357 ? 3.6°
Drops below altitude 10° 12:14:43 10° 55° (NE) 1,975 ? 4.2°
Sets 12:17:26 0° 71° (ENE) 2,870 ? 4.8°
